Time,TemperatureF,DewpointF,PressureIn,WindDirection,WindDirectionDegrees,WindSpeedMPH,WindSpeedGustMPH,Humidity,HourlyPrecipIn,Conditions,Clouds,dailyrainin,SoftwareType,DateUTC
2013-06-26 00:02:00,72.0,67.3,30.11,West,270,0.0,2.0,85,0.00,,,0.00,meteohub,2013-06-26 04:02:00,
2013-06-26 00:12:00,71.1,67.3,30.11,West,270,0.0,2.0,88,0.00,,,0.00,meteohub,2013-06-26 04:12:00,
2013-06-26 00:22:00,71.1,68.9,30.10,West,270,0.0,1.0,93,0.00,,,0.00,meteohub,2013-06-26 04:22:00,
2013-06-26 00:32:00,70.0,68.5,30.09,West,270,0.0,0.0,95,0.00,,,0.00,meteohub,2013-06-26 04:32:00,
2013-06-26 00:42:00,70.0,68.7,30.09,West,270,0.0,1.0,96,0.00,,,0.00,meteohub,2013-06-26 04:42:00,
2013-06-26 00:52:00,70.0,69.4,30.08,West,270,0.0,0.0,98,0.00,,,0.00,meteohub,2013-06-26 04:52:00,
2013-06-26 01:02:00,70.0,68.7,30.08,West,270,0.0,2.0,96,0.00,,,0.00,meteohub,2013-06-26 05:02:00,
2013-06-26 01:12:00,70.0,68.7,30.08,West,270,0.0,2.0,96,0.00,,,0.00,meteohub,2013-06-26 05:12:00,
2013-06-26 01:22:00,70.0,68.5,30.07,West,270,0.0,1.0,95,0.00,,,0.00,meteohub,2013-06-26 05:22:00,
2013-06-26 01:32:00,70.0,68.2,30.08,West,270,0.0,0.0,94,0.00,,,0.00,meteohub,2013-06-26 05:32:00,
2013-06-26 01:42:00,70.0,68.2,30.08,NW,315,2.0,4.0,94,0.00,,,0.00,meteohub,2013-06-26 05:42:00,
2013-06-26 01:52:00,70.0,68.5,30.09,NW,315,2.0,4.0,95,0.00,,,0.00,meteohub,2013-06-26 05:52:00,
2013-06-26 02:02:00,70.0,68.5,30.08,NW,315,1.0,3.0,95,0.00,,,0.00,meteohub,2013-06-26 06:02:00,
2013-06-26 02:12:00,69.1,67.8,30.08,NNW,337,1.0,2.0,96,0.00,,,0.00,meteohub,2013-06-26 06:12:00,
2013-06-26 02:22:00,69.1,67.3,30.08,NNW,337,0.0,3.0,94,0.00,,,0.00,meteohub,2013-06-26 06:22:00,
2013-06-26 02:32:00,69.1,67.3,30.07,NNW,337,0.0,0.0,94,0.00,,,0.00,meteohub,2013-06-26 06:32:00,
2013-06-26 02:42:00,69.1,67.3,30.07,NNW,337,0.0,2.0,94,0.00,,,0.00,meteohub,2013-06-26 06:42:00,
2013-06-26 02:52:00,69.1,67.3,30.07,NNW,337,0.0,2.0,94,0.00,,,0.00,meteohub,2013-06-26 06:52:00,
2013-06-26 03:02:00,69.1,67.3,30.06,NNW,337,0.0,1.0,94,0.00,,,0.00,meteohub,2013-06-26 07:02:00,
2013-06-26 03:12:00,69.1,67.3,30.06,NNW,337,0.0,0.0,94,0.00,,,0.00,meteohub,2013-06-26 07:12:00,
2013-06-26 03:22:00,69.1,66.9,30.06,NNW,337,0.0,2.0,93,0.00,,,0.00,meteohub,2013-06-26 07:22:00,
2013-06-26 03:32:00,69.1,66.4,30.06,NNW,337,0.0,1.0,91,0.00,,,0.00,meteohub,2013-06-26 07:32:00,
2013-06-26 03:42:00,69.1,65.7,30.05,NNW,337,0.0,0.0,89,0.00,,,0.00,meteohub,2013-06-26 07:42:00,
2013-06-26 03:52:00,69.1,66.0,30.05,NNW,337,0.0,0.0,90,0.00,,,0.00,meteohub,2013-06-26 07:52:00,
2013-06-26 04:02:00,69.1,66.4,30.05,NNW,337,0.0,0.0,91,0.00,,,0.00,meteohub,2013-06-26 08:02:00,
2013-06-26 04:12:00,69.1,67.3,30.05,NNW,337,0.0,2.0,94,0.00,,,0.00,meteohub,2013-06-26 08:12:00,
2013-06-26 04:22:00,69.1,66.9,30.06,NNW,337,2.0,2.0,93,0.00,,,0.00,meteohub,2013-06-26 08:22:00,
2013-06-26 04:32:00,69.1,66.9,30.05,NNW,337,1.0,2.0,93,0.00,,,0.00,meteohub,2013-06-26 08:32:00,
2013-06-26 04:42:00,69.1,66.9,30.06,NW,315,0.0,4.0,93,0.00,,,0.00,meteohub,2013-06-26 08:42:00,
2013-06-26 04:52:00,69.1,66.9,30.06,NW,315,1.0,4.0,93,0.00,,,0.00,meteohub,2013-06-26 08:52:00,
2013-06-26 05:02:00,69.1,66.7,30.06,NW,315,1.0,5.0,92,0.00,,,0.00,meteohub,2013-06-26 09:02:00,
2013-06-26 05:12:00,69.1,66.9,30.07,NW,315,1.0,6.0,93,0.00,,,0.00,meteohub,2013-06-26 09:12:00,
2013-06-26 05:22:00,69.1,67.3,30.07,NW,315,3.0,6.0,94,0.00,,,0.00,meteohub,2013-06-26 09:22:00,
2013-06-26 05:32:00,69.1,67.3,30.07,NNW,337,2.0,7.0,94,0.00,,,0.00,meteohub,2013-06-26 09:32:00,
2013-06-26 05:42:00,69.1,66.9,30.07,NW,315,3.0,5.0,93,0.00,,,0.00,meteohub,2013-06-26 09:42:00,
2013-06-26 05:52:00,68.0,65.8,30.07,NNW,337,0.0,4.0,93,0.00,,,0.00,meteohub,2013-06-26 09:52:00,
2013-06-26 06:02:00,68.0,65.8,30.07,North,0,1.0,3.0,93,0.00,,,0.00,meteohub,2013-06-26 10:02:00,
2013-06-26 06:12:00,68.0,65.7,30.07,North,0,1.0,3.0,92,0.00,,,0.00,meteohub,2013-06-26 10:12:00,
2013-06-26 06:22:00,69.1,66.4,30.07,North,0,0.0,2.0,91,0.00,,,0.00,meteohub,2013-06-26 10:22:00,
2013-06-26 06:32:00,69.1,66.7,30.07,North,0,0.0,2.0,92,0.00,,,0.00,meteohub,2013-06-26 10:32:00,
2013-06-26 06:42:00,69.1,66.7,30.07,North,0,0.0,0.0,92,0.00,,,0.00,meteohub,2013-06-26 10:42:00,
2013-06-26 06:52:00,69.1,66.9,30.06,North,0,0.0,0.0,93,0.00,,,0.00,meteohub,2013-06-26 10:52:00,
2013-06-26 07:02:00,69.1,66.9,30.07,North,0,2.0,2.0,93,0.00,,,0.00,meteohub,2013-06-26 11:02:00,
2013-06-26 07:12:00,70.0,67.5,30.07,North,0,0.0,2.0,92,0.00,,,0.00,meteohub,2013-06-26 11:12:00,
2013-06-26 07:22:00,70.0,67.3,30.08,North,0,0.0,2.0,91,0.00,,,0.00,meteohub,2013-06-26 11:22:00,
2013-06-26 07:32:00,71.1,67.3,30.08,North,0,0.0,0.0,88,0.00,,,0.00,meteohub,2013-06-26 11:32:00,
2013-06-26 07:42:00,72.0,66.9,30.09,North,0,0.0,0.0,84,0.00,,,0.00,meteohub,2013-06-26 11:42:00,
2013-06-26 07:52:00,73.0,67.3,30.09,NW,315,0.0,2.0,82,0.00,,,0.00,meteohub,2013-06-26 11:52:00,
2013-06-26 08:02:00,73.9,65.8,30.09,NW,315,2.0,2.0,76,0.00,,,0.00,meteohub,2013-06-26 12:02:00,
2013-06-26 08:12:00,75.0,65.8,30.09,NW,315,1.0,2.0,73,0.00,,,0.00,meteohub,2013-06-26 12:12:00,
2013-06-26 08:22:00,75.9,65.5,30.10,West,270,1.0,3.0,70,0.00,,,0.00,meteohub,2013-06-26 12:22:00,
2013-06-26 08:32:00,77.0,66.4,30.11,West,270,1.0,3.0,70,0.00,,,0.00,meteohub,2013-06-26 12:32:00,
2013-06-26 08:42:00,79.0,66.2,30.11,SW,225,0.0,2.0,65,0.00,,,0.00,meteohub,2013-06-26 12:42:00,
2013-06-26 08:52:00,81.0,65.3,30.12,SW,225,1.0,2.0,59,0.00,,,0.00,meteohub,2013-06-26 12:52:00,
2013-06-26 09:02:00,81.0,64.8,30.13,West,270,0.0,2.0,58,0.00,,,0.00,meteohub,2013-06-26 13:02:00,
2013-06-26 09:12:00,81.0,64.2,30.13,West,270,1.0,2.0,57,0.00,,,0.00,meteohub,2013-06-26 13:12:00,
2013-06-26 09:22:00,81.0,63.3,30.13,NW,315,2.0,7.0,55,0.00,,,0.00,meteohub,2013-06-26 13:22:00,
2013-06-26 09:32:00,81.0,63.9,30.13,North,0,2.0,7.0,56,0.00,,,0.00,meteohub,2013-06-26 13:32:00,
2013-06-26 09:42:00,82.0,64.8,30.12,North,0,1.0,7.0,56,0.00,,,0.00,meteohub,2013-06-26 13:42:00,
2013-06-26 09:52:00,82.0,63.7,30.13,NNW,337,1.0,2.0,54,0.00,,,0.00,meteohub,2013-06-26 13:52:00,
2013-06-26 10:02:00,82.9,64.6,30.13,NW,315,2.0,5.0,54,0.00,,,0.00,meteohub,2013-06-26 14:02:00,
2013-06-26 10:12:00,84.0,65.1,30.13,WSW,247,2.0,2.0,53,0.00,,,0.00,meteohub,2013-06-26 14:12:00,
2013-06-26 10:22:00,84.0,66.6,30.13,West,270,2.0,2.0,56,0.00,,,0.00,meteohub,2013-06-26 14:22:00,
2013-06-26 10:32:00,84.0,66.6,30.13,NW,315,0.0,3.0,56,0.00,,,0.00,meteohub,2013-06-26 14:32:00,
2013-06-26 10:42:00,84.9,65.3,30.13,West,270,1.0,2.0,52,0.00,,,0.00,meteohub,2013-06-26 14:42:00,
2013-06-26 10:52:00,86.0,66.9,30.13,NW,315,0.0,4.0,53,0.00,,,0.00,meteohub,2013-06-26 14:52:00,
2013-06-26 11:02:00,87.1,64.9,30.13,SW,225,2.0,2.0,48,0.00,,,0.00,meteohub,2013-06-26 15:02:00,
2013-06-26 11:12:00,88.0,65.8,30.14,SSW,202,0.0,2.0,48,0.00,,,0.00,meteohub,2013-06-26 15:12:00,
2013-06-26 11:22:00,89.1,65.7,30.15,North,0,0.0,2.0,46,0.00,,,0.00,meteohub,2013-06-26 15:22:00,
2013-06-26 11:32:00,89.1,66.2,30.15,SW,225,2.0,2.0,47,0.00,,,0.00,meteohub,2013-06-26 15:32:00,
2013-06-26 11:42:00,89.1,66.7,30.15,WNW,292,2.0,3.0,48,0.00,,,0.00,meteohub,2013-06-26 15:42:00,
2013-06-26 11:52:00,89.1,67.5,30.15,NW,315,1.0,4.0,49,0.00,,,0.00,meteohub,2013-06-26 15:52:00,
2013-06-26 12:02:00,89.1,66.7,30.15,SSW,202,0.0,2.0,48,0.00,,,0.00,meteohub,2013-06-26 16:02:00,
2013-06-26 12:12:00,89.1,67.5,30.15,West,270,2.0,2.0,49,0.00,,,0.00,meteohub,2013-06-26 16:12:00,
2013-06-26 12:22:00,90.0,67.6,30.14,SW,225,0.0,2.0,48,0.00,,,0.00,meteohub,2013-06-26 16:22:00,
2013-06-26 12:32:00,91.0,68.0,30.14,SW,225,1.0,4.0,47,0.00,,,0.00,meteohub,2013-06-26 16:32:00,
2013-06-26 12:42:00,91.9,68.2,30.14,SW,225,0.0,2.0,46,0.00,,,0.00,meteohub,2013-06-26 16:42:00,
2013-06-26 12:52:00,91.9,68.2,30.14,East,90,1.0,2.0,46,0.00,,,0.00,meteohub,2013-06-26 16:52:00,
2013-06-26 13:02:00,91.9,69.4,30.14,SSW,202,1.0,2.0,48,0.00,,,0.00,meteohub,2013-06-26 17:02:00,
2013-06-26 13:12:00,91.9,68.9,30.14,South,180,2.0,2.0,47,0.00,,,0.00,meteohub,2013-06-26 17:12:00,
2013-06-26 13:22:00,91.9,68.9,30.14,SE,135,1.0,4.0,47,0.00,,,0.00,meteohub,2013-06-26 17:22:00,
2013-06-26 13:32:00,91.9,68.2,30.13,South,180,1.0,4.0,46,0.00,,,0.00,meteohub,2013-06-26 17:32:00,
2013-06-26 13:42:00,91.9,67.6,30.13,SW,225,1.0,4.0,45,0.00,,,0.00,meteohub,2013-06-26 17:42:00,
2013-06-26 13:52:00,91.9,68.2,30.13,SW,225,0.0,4.0,46,0.00,,,0.00,meteohub,2013-06-26 17:52:00,
2013-06-26 14:02:00,91.0,68.0,30.13,South,180,1.0,4.0,47,0.00,,,0.00,meteohub,2013-06-26 18:02:00,
2013-06-26 14:12:00,91.9,68.2,30.13,SW,225,1.0,4.0,46,0.00,,,0.00,meteohub,2013-06-26 18:12:00,
2013-06-26 14:22:00,91.9,69.4,30.13,South,180,1.0,2.0,48,0.00,,,0.00,meteohub,2013-06-26 18:22:00,
2013-06-26 14:32:00,91.9,68.9,30.12,SW,225,2.0,4.0,47,0.00,,,0.00,meteohub,2013-06-26 18:32:00,
2013-06-26 14:42:00,90.0,67.6,30.12,SW,225,2.0,3.0,48,0.00,,,0.00,meteohub,2013-06-26 18:42:00,
2013-06-26 14:52:00,89.1,68.0,30.11,South,180,1.0,3.0,50,0.00,,,0.00,meteohub,2013-06-26 18:52:00,
2013-06-26 15:02:00,89.1,69.6,30.11,SW,225,0.0,2.0,53,0.00,,,0.00,meteohub,2013-06-26 19:02:00,
2013-06-26 15:12:00,88.0,69.8,30.11,SSE,157,2.0,2.0,55,0.00,,,0.00,meteohub,2013-06-26 19:12:00,
2013-06-26 15:22:00,88.0,70.3,30.11,SW,225,1.0,2.0,56,0.00,,,0.00,meteohub,2013-06-26 19:22:00,
2013-06-26 15:32:00,89.1,71.2,30.09,SW,225,1.0,2.0,56,0.00,,,0.00,meteohub,2013-06-26 19:32:00,
2013-06-26 15:42:00,90.0,71.1,30.09,South,180,0.0,3.0,54,0.00,,,0.00,meteohub,2013-06-26 19:42:00,
2013-06-26 15:52:00,90.0,68.9,30.08,NW,315,0.0,3.0,50,0.00,,,0.00,meteohub,2013-06-26 19:52:00,
2013-06-26 16:02:00,89.1,70.2,30.08,SSW,202,1.0,4.0,54,0.00,,,0.00,meteohub,2013-06-26 20:02:00,
2013-06-26 16:12:00,88.0,69.8,30.07,SE,135,0.0,5.0,55,0.00,,,0.00,meteohub,2013-06-26 20:12:00,
2013-06-26 16:22:00,87.1,70.0,30.05,SE,135,0.0,5.0,57,0.00,,,0.00,meteohub,2013-06-26 20:22:00,
2013-06-26 16:32:00,86.0,72.9,30.05,SE,135,0.0,2.0,65,0.00,,,0.00,meteohub,2013-06-26 20:32:00,
2013-06-26 16:42:00,84.0,73.2,30.05,SW,225,0.0,0.0,70,0.00,,,0.00,meteohub,2013-06-26 20:42:00,
2013-06-26 16:52:00,82.9,75.0,30.05,SW,225,0.0,0.0,77,0.01,,,0.01,meteohub,2013-06-26 20:52:00,
2013-06-26 17:02:00,82.0,72.9,30.04,SE,135,0.0,2.0,74,0.01,,,0.01,meteohub,2013-06-26 21:02:00,
2013-06-26 17:12:00,82.0,73.4,30.04,South,180,0.0,2.0,75,0.01,,,0.01,meteohub,2013-06-26 21:12:00,
2013-06-26 17:22:00,82.0,73.4,30.04,South,180,1.0,2.0,75,0.01,,,0.01,meteohub,2013-06-26 21:22:00,
2013-06-26 17:32:00,82.9,74.7,30.04,South,180,2.0,2.0,76,0.01,,,0.01,meteohub,2013-06-26 21:32:00,
2013-06-26 17:42:00,82.9,74.1,30.04,South,180,1.0,6.0,75,0.01,,,0.01,meteohub,2013-06-26 21:42:00,
2013-06-26 17:52:00,82.9,73.4,30.04,WNW,292,0.0,5.0,73,0.00,,,0.01,meteohub,2013-06-26 21:52:00,
2013-06-26 18:02:00,82.0,71.8,30.04,West,270,0.0,5.0,71,0.00,,,0.01,meteohub,2013-06-26 22:02:00,
2013-06-26 18:12:00,82.0,72.5,30.04,NW,315,2.0,4.0,73,0.00,,,0.01,meteohub,2013-06-26 22:12:00,
2013-06-26 18:22:00,82.0,70.0,30.05,NW,315,2.0,8.0,67,0.00,,,0.01,meteohub,2013-06-26 22:22:00,
2013-06-26 18:32:00,81.0,69.4,30.05,NW,315,2.0,11.0,68,0.00,,,0.01,meteohub,2013-06-26 22:32:00,
2013-06-26 18:42:00,81.0,68.9,30.05,NW,315,0.0,11.0,67,0.00,,,0.01,meteohub,2013-06-26 22:42:00,
2013-06-26 18:52:00,80.1,68.9,30.04,NW,315,1.0,9.0,69,0.00,,,0.01,meteohub,2013-06-26 22:52:00,
2013-06-26 19:02:00,79.0,68.7,30.04,NNW,337,2.0,6.0,71,0.00,,,0.01,meteohub,2013-06-26 23:02:00,
2013-06-26 19:12:00,79.0,68.7,30.04,North,0,1.0,5.0,71,0.00,,,0.01,meteohub,2013-06-26 23:12:00,
2013-06-26 19:22:00,79.0,69.3,30.04,NW,315,0.0,2.0,72,0.00,,,0.01,meteohub,2013-06-26 23:22:00,
2013-06-26 19:32:00,78.1,69.4,30.04,East,90,0.0,2.0,75,0.00,,,0.01,meteohub,2013-06-26 23:32:00,
2013-06-26 19:42:00,79.0,70.3,30.05,North,0,2.0,2.0,75,0.00,,,0.01,meteohub,2013-06-26 23:42:00,
2013-06-26 19:52:00,78.1,69.4,30.05,North,0,2.0,7.0,75,0.00,,,0.01,meteohub,2013-06-26 23:52:00,
2013-06-26 20:02:00,77.0,68.9,30.04,SE,135,0.0,4.0,76,0.00,,,0.01,meteohub,2013-06-27 00:02:00,
2013-06-26 20:12:00,77.0,69.3,30.03,SE,135,0.0,2.0,77,0.00,,,0.01,meteohub,2013-06-27 00:12:00,
2013-06-26 20:22:00,77.0,68.9,30.03,SE,135,0.0,2.0,76,0.00,,,0.01,meteohub,2013-06-27 00:22:00,
2013-06-26 20:32:00,77.0,68.5,30.04,SE,135,0.0,0.0,75,0.00,,,0.01,meteohub,2013-06-27 00:32:00,
2013-06-26 20:42:00,77.0,68.9,30.04,SE,135,0.0,0.0,76,0.00,,,0.01,meteohub,2013-06-27 00:42:00,
2013-06-26 20:52:00,75.9,68.2,30.04,WSW,247,0.0,2.0,77,0.00,,,0.01,meteohub,2013-06-27 00:52:00,
2013-06-26 21:02:00,75.0,69.4,30.03,WSW,247,0.0,2.0,83,0.00,,,0.01,meteohub,2013-06-27 01:02:00,
2013-06-26 21:12:00,75.0,71.2,30.03,SW,225,2.0,2.0,88,0.00,,,0.01,meteohub,2013-06-27 01:12:00,
2013-06-26 21:22:00,75.0,72.0,30.03,SW,225,0.0,2.0,90,0.00,,,0.01,meteohub,2013-06-27 01:22:00,
2013-06-26 21:32:00,73.9,71.4,30.03,SW,225,0.0,2.0,92,0.00,,,0.01,meteohub,2013-06-27 01:32:00,
2013-06-26 21:42:00,73.9,71.8,30.03,SW,225,1.0,2.0,93,0.00,,,0.01,meteohub,2013-06-27 01:42:00,
2013-06-26 21:52:00,73.9,72.1,30.03,SW,225,1.0,2.0,94,0.00,,,0.01,meteohub,2013-06-27 01:52:00,
2013-06-26 22:02:00,73.9,71.4,30.03,SSW,202,1.0,2.0,92,0.00,,,0.01,meteohub,2013-06-27 02:02:00,
2013-06-26 22:12:00,73.0,70.0,30.04,SSW,202,2.0,2.0,90,0.00,,,0.01,meteohub,2013-06-27 02:12:00,
2013-06-26 22:22:00,73.0,69.3,30.04,SW,225,1.0,2.0,88,0.00,,,0.01,meteohub,2013-06-27 02:22:00,
2013-06-26 22:32:00,73.0,69.3,30.03,SE,135,0.0,2.0,88,0.00,,,0.01,meteohub,2013-06-27 02:32:00,
2013-06-26 22:42:00,73.0,69.3,30.03,SSW,202,1.0,2.0,88,0.00,,,0.01,meteohub,2013-06-27 02:42:00,
2013-06-26 22:52:00,73.0,68.9,30.03,SW,225,1.0,2.0,87,0.00,,,0.01,meteohub,2013-06-27 02:52:00,
2013-06-26 23:02:00,72.0,68.2,30.02,South,180,1.0,3.0,88,0.00,,,0.01,meteohub,2013-06-27 03:02:00,
2013-06-26 23:12:00,72.0,68.2,30.02,SSW,202,2.0,3.0,88,0.00,,,0.01,meteohub,2013-06-27 03:12:00,
2013-06-26 23:22:00,72.0,68.5,30.01,West,270,0.0,4.0,89,0.00,,,0.01,meteohub,2013-06-27 03:22:00,
2013-06-26 23:32:00,72.0,68.5,30.01,South,180,0.0,2.0,89,0.00,,,0.01,meteohub,2013-06-27 03:32:00,
2013-06-26 23:42:00,72.0,68.9,30.01,South,180,2.0,2.0,90,0.00,,,0.01,meteohub,2013-06-27 03:42:00,
2013-06-26 23:52:00,71.1,68.4,30.01,SW,225,1.0,2.0,91,0.00,,,0.01,meteohub,2013-06-27 03:52:00,